Weather History for Medicine Lodge, KS

Change the Weather History Date:

Monday, October 3, 2011

  Actual Average Record
Temperature  
Mean Temperature 72 °F 64 °F  
Max Temperature 91 °F 77 °F 97 °F (1954)
Min Temperature 54 °F 51 °F 33 °F (1980)
Degree Days  
Heating Degree Days 0 4  
Month to date heating degree days 12  
Since 1 July heating degree days 46  
Cooling Degree Days 8 3  
Month to date cooling degree days 9  
Year to date cooling degree days 1740  
Growing Degree Days 22 (Base 50)    
Moisture  
Dew Point 42 °F    
Average Humidity 37    
Maximum Humidity 59    
Minimum Humidity 20    
Precipitation  
Precipitation 0.00 in 0.08 in 3.38 in (1926)
Month to date precipitation 0.26  
Year to date precipitation 22.71  
Snow  
Snow 0.00 in 0.00 in - ()
Month to date snowfall 0.0  
Since 1 July snowfall 0.0  
Since 1 September snowfall 0.0  
Snow Depth -    
Sea Level Pressure  
Sea Level Pressure 30.06 in    
Wind  
Wind Speed 9 mph (SSE)    
Max Wind Speed 17 mph    
Max Gust Speed 23 mph    
T = Trace of Precipitation, MM = Missing Value Source: NWS Daily Summary

Daily Weather History Graph

Daily Weather History Graph

Search for Another Location

Airport:

Trip Planner

Search our weather history database for the weather conditions in past years. The results will help you decide how hot, cold, wet, or windy it might be!

Date:

Astronomy

Oct. 03, 2011 Rise Set
Actual Time 7:31 AM CDT 7:14 PM CDT
Civil Twilight 7:05 AM CDT 7:40 PM CDT
Nautical Twilight 6:34 AM CDT 8:10 PM CDT
Astronomical Twilight 6:04 AM CDT 8:41 PM CDT
Moon 2:23 PM CDT (10/3) No Moon Set
Length of Visible Light 12h 35m
Length of Day
11h 43m
Waxing Crescent, 45% of the Moon is Illuminated
Oct 3
Waxing Crescent
Oct 3
First Quarter
Oct 11
Full
Oct 19
Last Quarter
Oct 26
New

Hourly Weather History & Observations

Time (CDT) Temp. Dew Point Humidity Pressure Visibility Wind Dir Wind Speed Gust Speed Precip Events Conditions
12:56 AM 61.0 °F 39.9 °F 46% 30.08 in - ESE 5.8 mph - N/A   Unknown
1:56 AM 59.0 °F 39.9 °F 49% 30.09 in - ESE 8.1 mph - N/A   Unknown
2:56 AM 57.9 °F 39.9 °F 51% 30.08 in - ESE 9.2 mph - N/A   Unknown
3:56 AM 57.0 °F 39.9 °F 53% 30.08 in - SE 10.4 mph - N/A   Unknown
4:56 AM 55.9 °F 39.9 °F 55% 30.08 in - ESE 9.2 mph - N/A   Unknown
5:56 AM 55.0 °F 39.9 °F 57% 30.08 in - ESE 6.9 mph - N/A   Unknown
6:56 AM 54.0 °F 39.9 °F 59% 30.10 in - ESE 6.9 mph - N/A   Unknown
7:56 AM 55.9 °F 39.0 °F 53% 30.11 in - SE 8.1 mph - N/A   Unknown
8:56 AM 61.0 °F 37.9 °F 42% 30.11 in - SSE 8.1 mph 16.1 mph N/A   Unknown
9:56 AM 66.0 °F 37.9 °F 36% 30.11 in - SSE 10.4 mph 19.6 mph N/A   Unknown
10:56 AM 70.0 °F 37.9 °F 31% 30.11 in - South 15.0 mph 21.9 mph N/A   Unknown
11:56 AM 75.0 °F 39.9 °F 28% 30.10 in - South 13.8 mph - N/A   Unknown
12:56 PM 80.1 °F 42.1 °F 26% 30.08 in - South 15.0 mph 23.0 mph N/A   Unknown
1:56 PM 86.0 °F 43.0 °F 22% 30.05 in - South 16.1 mph - N/A   Unknown
2:56 PM 89.1 °F 44.1 °F 21% 30.02 in - South 13.8 mph 19.6 mph N/A   Unknown
3:56 PM 90.0 °F 44.1 °F 20% 30.01 in - South 17.3 mph 23.0 mph N/A   Unknown
4:56 PM 91.0 °F 45.0 °F 20% 30.01 in - South 15.0 mph 21.9 mph N/A   Unknown
5:56 PM 90.0 °F 46.0 °F 22% 30.00 in - South 12.7 mph 21.9 mph N/A   Unknown
6:56 PM 86.0 °F 46.9 °F 26% 30.01 in - South 10.4 mph - N/A   Unknown
7:56 PM 82.0 °F 46.9 °F 29% 30.03 in - SSE 6.9 mph - N/A   Unknown
8:56 PM 78.1 °F 46.0 °F 32% 30.04 in - SSE 6.9 mph - N/A   Unknown
9:56 PM 73.9 °F 45.0 °F 35% 30.06 in - South 8.1 mph - N/A   Unknown
10:56 PM 72.0 °F 44.1 °F 37% 30.06 in - SE 6.9 mph - N/A   Unknown
11:56 PM 70.0 °F 44.1 °F 39% 30.06 in - SE 6.9 mph - N/A   Unknown